Change the Weather History Date:

Thursday, July 12, 2012

  Actual Average Record
Temperature  
Mean Temperature 79 °F 72 °F  
Max Temperature 96 °F 87 °F 107 °F (2002)
Min Temperature 62 °F 59 °F 43 °F (1951)
Degree Days  
Heating Degree Days 0 1  
Month to date heating degree days 0 12  
Since 1 June heating degree days 35 108  
Since 1 July heating degree days 0 12  
Cooling Degree Days 14 8  
Month to date cooling degree days 145 83  
Year to date cooling degree days 332 185  
Since 1 June cooling degree days 298 168  
Growing Degree Days 29 (Base 50)    
Moisture  
Dew Point 45 °F    
Average Humidity 39    
Maximum Humidity 65    
Minimum Humidity 13    
Precipitation  
Precipitation 0.00 in 0.04 in 0.80 in (1965)
Month to date precipitation 0.11 0.56  
Year to date precipitation 4.50 8.54  
Snow  
Snow 0.00 in 0.00 in 0.00 in (2002)
Month to date snowfall 0.0 0.0  
Since 1 June snowfall T 0.0  
Since 1 July snowfall 0.0 0.0  
Snow Depth 0.00 in    
Sea Level Pressure  
Sea Level Pressure 29.93 in    
Wind  
Wind Speed 9 mph (SSW)    
Max Wind Speed 17 mph    
Max Gust Speed 20 mph    
Visibility 10 miles    
Events      
T = Trace of Precipitation, MM = Missing Value Source: NWS Daily Summary

Daily Weather History Graph

Daily Weather History Graph

Search for Another Location

Airport or City:

Trip Planner

Search our weather history database for the weather conditions in past years. The results will help you decide how hot, cold, wet, or windy it might be!

Date:

Astronomy

Jul. 12, 2012 Rise Set
Actual Time 5:36 AM MDT 9:02 PM MDT
Civil Twilight 4:59 AM MDT 9:39 PM MDT
Nautical Twilight 4:10 AM MDT 10:28 PM MDT
Astronomical Twilight 3:07 AM MDT 11:30 PM MDT
Moon 12:49 AM MDT (7/12) 3:33 PM MDT (7/12)
Length of Visible Light 16h 39m
Length of Day
15h 26m
Waning Crescent, 34% of the Moon is Illuminated
Jul 12
Waning Crescent
Jul 18
New
Jul 26
First Quarter
Aug 1
Full
Aug 9
Last Quarter

Hourly Weather History & Observations

Time (MDT) Temp. Dew Point Humidity Pressure Visibility Wind Dir Wind Speed Gust Speed Precip Events Conditions
12:53 AM 73.0 °F 48.9 °F 42% 29.93 in 10.0 mi WSW 13.8 mph - N/A   Partly Cloudy
1:53 AM 69.1 °F 51.1 °F 53% 29.94 in 10.0 mi SSW 9.2 mph - N/A   Scattered Clouds
2:53 AM 69.1 °F 48.9 °F 49% 29.94 in 10.0 mi WSW 13.8 mph - N/A   Partly Cloudy
3:53 AM 69.1 °F 48.9 °F 49% 29.95 in 10.0 mi SW 13.8 mph - N/A   Clear
4:53 AM 64.9 °F 48.9 °F 56% 29.96 in 10.0 mi SW 8.1 mph - N/A   Partly Cloudy
5:53 AM 64.9 °F 48.9 °F 56% 29.97 in 10.0 mi SW 8.1 mph - N/A   Partly Cloudy
6:53 AM 63.0 °F 50.0 °F 63% 30.01 in 10.0 mi SW 12.7 mph - N/A   Partly Cloudy
7:53 AM 66.0 °F 48.0 °F 52% 30.00 in 10.0 mi SW 13.8 mph - N/A   Clear
8:53 AM 69.1 °F 51.1 °F 53% 30.00 in 10.0 mi SSW 9.2 mph - N/A   Clear
9:53 AM 75.0 °F 52.0 °F 44% 29.99 in 10.0 mi SW 11.5 mph - N/A   Clear
10:53 AM 80.1 °F 51.1 °F 36% 29.99 in 10.0 mi SW 11.5 mph - N/A   Clear
11:53 AM 86.0 °F 48.9 °F 28% 29.96 in 10.0 mi WSW 6.9 mph - N/A   Partly Cloudy
12:53 PM 89.1 °F 44.1 °F 21% 29.95 in 10.0 mi SW 8.1 mph - N/A   Partly Cloudy
1:53 PM 91.0 °F 42.1 °F 18% 29.93 in 10.0 mi Calm Calm - N/A   Partly Cloudy
2:53 PM 93.0 °F 41.0 °F 16% 29.91 in 10.0 mi SW 6.9 mph - N/A   Partly Cloudy
3:53 PM 95.0 °F 37.0 °F 13% 29.90 in 10.0 mi Variable 5.8 mph - N/A   Partly Cloudy
4:53 PM 95.0 °F 37.0 °F 13% 29.88 in 10.0 mi Variable 6.9 mph - N/A   Partly Cloudy
5:53 PM 95.0 °F 37.9 °F 14% 29.86 in 10.0 mi ENE 11.5 mph - N/A   Clear
6:53 PM 93.0 °F 42.1 °F 17% 29.86 in 10.0 mi ENE 12.7 mph - N/A   Clear
7:53 PM 91.0 °F 42.1 °F 18% 29.86 in 10.0 mi ENE 10.4 mph - N/A   Clear
8:53 PM 88.0 °F 42.1 °F 20% 29.87 in 10.0 mi East 9.2 mph - N/A   Clear
9:53 PM 84.0 °F 42.1 °F 23% 29.88 in 10.0 mi East 6.9 mph - N/A   Clear
10:53 PM 82.0 °F 39.9 °F 22% 29.88 in 10.0 mi East 6.9 mph - N/A   Clear
11:53 PM 80.1 °F 42.1 °F 26% 29.88 in 10.0 mi East 9.2 mph - N/A   Clear